ONEWEB-0336, 49202

Orbit data source: Space-Track

ONEWEB-0336, 49202 is a payload satellite owned by One Web (NAA) (UK) in LEO that was launched on Tue, 14 Sep 2021 UTC via a SOYUZ-2-1B launch vehicle from the Tyuratam Missile And Space Complex (TTMTR). Payload-class satellites include a variety of spacecraft equipped with specific instruments for various scientific and technological missions. These include communications satellites like Starlink; space stations such as the ISS; scientific satellites like the Hubble; Earth observation satellites from companies like Planet Labs, Umbra, and HawkEye 360; GPS; miniature CubeSats for education and research; and military/defense satellites.

Loading next visibility...
Identifier
49202, 2021-083S
Orbit
LEO
Country
Flag of UKUK
Related business
Manufacturer
One Web
Mission
Operational Commercial Communications
Bus & Motor
ARROW, Unknown motor
Mass
148 kg wet, ~140 kg dry
Launch date (UTC)
2021-09-14 (4 years ago)
Launch vehicle
SOYUZ-2-1B
Launch site
Tyuratam Missile And Space Complex (TTMTR)
Object type
Payload
Rocket body
Debris
Shape & HBR
Trap Box + 2 Pan, 2.5 m
Radar Cross Section
2.032 m², Large (>1 m²)

Expand to show TLE details & history
Last TLE update: 15 hours ago

TLE from 15 hours ago
0 ONEWEB-0336
1 49202U 21083S   25249.26859564  .00000365  00000-0  96471-3 0  9992
2 49202  87.9013  16.6493 0001766  94.1775 265.9556 13.13470970193645
Epoch: 2025-09-06T06:26Z
TLE epoch observation values (Epoch: 2025-09-06T06:26:46.663Z)
Latitude
-0.00001°
Longitude
-65.64999°
Altitude
1,212.749 km
Speed
7.248 km/s
True Right ascension
01h 06m 35s
True Declination
0° 00' 00"
Sunlit
Object was in full shadow at epoch
Visualization orbit readout
Latitude
Unknown
Longitude
Unknown
Altitude
Unknown
Speed
Unknown
Apparent Right ascension
Unknown
Apparent Declination
Unknown
Sunlit
N/A
Visualization observer readout
Local Sidereal Time
13:04:17
Azimuth
Unknown
Elevation
Unknown
Doppler factor
Unknown
Orbital elements
Apogee altitude
1,208.216 km
Perigee altitude
1,205.537 km
Semi-major axis
7,585.014 km
Eccentricity
0.00018
Inclination
87.9013°
RAAN
16.6493°
Arg. of periapsis
94.1775°
True anomaly
265.93541°
Mean anomaly
265.9556°
Eccentric anomaly
265.94551°
Mean motion
3.28555 °/min
Orbital period
109.57 mins
BSTAR
0.00096471
Loading maneuver chart data...
Computing Atmospheric mass density...
Loading historical data...
Loading historical data...
Loading historical data...
Loading historical data...
Loading historical data...
Loading historical data...
Loading historical data...

Documentation

Showing up to 5 results
|